Zurück zum Katalog

STARLINK-35880

AktivKommunikationVLEO
NORAD 67187·PAYLOAD·🇺🇸 United States

Gestartet Dec 17, 2025 von Cape Canaveral Space Force Station

Loading…

Nächste Überflüge (nächste 24 Stunden)

TLE

AktuellSource: CelesTrak SupGP

Epoche: Sep 14, 2026, 15:02 UTC

1 67187C 25303AA  26257.62687500  .00048559  00000+0  17592-2 0  2571
2 67187  43.0023 323.4597 0001306 276.9219  73.3303 15.27546474    17

Verfolge STARLINK-35880 in Echtzeit mit AllMySat

Download on the App Store